Time,TemperatureF,DewpointF,PressureIn,WindDirection,WindDirectionDegrees,WindSpeedMPH,WindSpeedGustMPH,Humidity,HourlyPrecipIn,Conditions,Clouds,dailyrainin,SoftwareType,DateUTC
2013-05-03 00:01:00,53.1,14.2,29.88,SSE,149,0.0,0.0,21,0.00,,CLR,0.00,VWS V14.01,2013-05-03 04:01:00,
2013-05-03 00:06:00,53.1,14.2,29.88,SSE,149,0.0,0.0,21,0.00,,CLR,0.00,VWS V14.01,2013-05-03 04:06:00,
2013-05-03 00:11:00,52.9,14.0,29.91,SSE,149,0.0,0.0,21,0.00,,CLR,0.00,VWS V14.01,2013-05-03 04:11:00,
2013-05-03 00:16:00,52.9,14.0,29.91,SSE,149,0.0,0.0,21,0.00,,CLR,0.00,VWS V14.01,2013-05-03 04:16:00,
2013-05-03 00:21:00,52.7,13.9,29.91,SSE,149,0.0,0.0,21,0.00,,CLR,0.00,VWS V14.01,2013-05-03 04:21:00,
2013-05-03 00:26:00,52.3,15.7,29.91,SSE,149,0.0,0.0,23,0.00,,CLR,0.00,VWS V14.01,2013-05-03 04:26:00,
2013-05-03 00:31:00,52.2,15.5,29.91,SSE,149,0.0,0.0,23,0.00,,CLR,0.00,VWS V14.01,2013-05-03 04:31:00,
2013-05-03 00:36:00,52.2,15.5,29.91,SSE,149,0.0,0.0,23,0.00,,CLR,0.00,VWS V14.01,2013-05-03 04:36:00,
2013-05-03 00:41:00,52.0,15.4,29.91,SSE,149,0.0,0.0,23,0.00,,CLR,0.00,VWS V14.01,2013-05-03 04:41:00,
2013-05-03 00:46:00,51.8,15.2,29.91,SSE,149,0.0,0.0,23,0.00,,CLR,0.00,VWS V14.01,2013-05-03 04:46:00,
2013-05-03 00:51:00,51.6,16.0,29.91,SSE,149,0.0,0.0,24,0.00,,CLR,0.00,VWS V14.01,2013-05-03 04:51:00,
2013-05-03 00:56:00,51.4,17.7,29.91,SSE,149,0.0,0.0,26,0.00,,CLR,0.00,VWS V14.01,2013-05-03 04:56:00,
2013-05-03 01:01:00,51.3,17.6,29.91,SSE,149,0.0,0.0,26,0.00,,FEW100,0.00,VWS V14.01,2013-05-03 05:01:00,
2013-05-03 01:06:00,51.1,17.4,29.91,SSE,149,0.0,0.0,26,0.00,,FEW100,0.00,VWS V14.01,2013-05-03 05:06:00,
2013-05-03 01:11:00,50.9,17.2,29.91,SSE,149,0.0,0.0,26,0.00,,FEW100,0.00,VWS V14.01,2013-05-03 05:11:00,
2013-05-03 01:16:00,50.9,17.2,29.91,SSE,149,0.0,0.0,26,0.00,,FEW100,0.00,VWS V14.01,2013-05-03 05:16:00,
2013-05-03 01:21:00,50.7,17.1,29.91,SSE,149,0.0,0.0,26,0.00,,FEW100,0.00,VWS V14.01,2013-05-03 05:21:00,
2013-05-03 01:26:00,50.7,17.1,29.91,SSE,150,0.0,0.0,26,0.00,,FEW100,0.00,VWS V14.01,2013-05-03 05:26:00,
2013-05-03 01:31:00,51.3,17.6,29.91,SSE,150,0.0,0.0,26,0.00,,FEW100,0.00,VWS V14.01,2013-05-03 05:31:00,
2013-05-03 01:36:00,51.6,17.9,29.91,SSE,150,0.0,0.0,26,0.00,,FEW100,0.00,VWS V14.01,2013-05-03 05:36:00,
2013-05-03 01:41:00,52.0,15.4,29.91,East,94,0.0,0.0,23,0.00,,FEW100,0.00,VWS V14.01,2013-05-03 05:41:00,
2013-05-03 01:46:00,52.7,13.9,29.91,WNW,292,0.0,0.0,21,0.00,,FEW100,0.00,VWS V14.01,2013-05-03 05:46:00,
2013-05-03 01:51:00,53.2,14.3,29.91,ESE,113,0.0,0.0,21,0.00,,FEW100,0.00,VWS V14.01,2013-05-03 05:51:00,
2013-05-03 01:56:00,53.6,11.1,29.94,North,353,0.0,0.0,18,0.00,,FEW100,0.00,VWS V14.01,2013-05-03 05:56:00,
2013-05-03 02:01:00,53.8,11.3,29.94,WNW,290,0.0,0.0,18,0.00,,BKN120,0.00,VWS V14.01,2013-05-03 06:01:00,
2013-05-03 02:06:00,53.8,11.3,29.94,WNW,290,0.0,0.0,18,0.00,,BKN120,0.00,VWS V14.01,2013-05-03 06:06:00,
2013-05-03 02:11:00,54.0,11.4,29.94,NW,320,0.0,0.0,18,0.00,,BKN120,0.00,VWS V14.01,2013-05-03 06:11:00,
2013-05-03 02:16:00,54.0,11.4,29.94,WNW,300,0.0,0.0,18,0.00,,BKN120,0.00,VWS V14.01,2013-05-03 06:16:00,
2013-05-03 02:21:00,54.1,11.6,29.94,ESE,103,0.0,0.0,18,0.00,,BKN120,0.00,VWS V14.01,2013-05-03 06:21:00,
2013-05-03 02:26:00,54.1,11.6,29.94,West,267,0.0,0.0,18,0.00,,BKN120,0.00,VWS V14.01,2013-05-03 06:26:00,
2013-05-03 02:31:00,54.3,11.7,29.94,NNE,31,0.0,0.0,18,0.00,,BKN120,0.00,VWS V14.01,2013-05-03 06:31:00,
2013-05-03 02:36:00,54.3,11.7,29.94,SE,133,0.0,0.0,18,0.00,,BKN120,0.00,VWS V14.01,2013-05-03 06:36:00,
2013-05-03 02:41:00,54.5,11.9,29.94,SE,139,2.2,2.2,18,0.00,,BKN120,0.00,VWS V14.01,2013-05-03 06:41:00,
2013-05-03 02:46:00,54.5,11.9,29.94,NNE,20,0.0,0.0,18,0.00,,BKN120,0.00,VWS V14.01,2013-05-03 06:46:00,
2013-05-03 02:51:00,54.7,12.0,29.94,ESE,113,0.0,0.0,18,0.00,,BKN120,0.00,VWS V14.01,2013-05-03 06:51:00,
2013-05-03 02:56:00,54.7,12.0,29.94,North,1,0.0,0.0,18,0.00,,BKN120,0.00,VWS V14.01,2013-05-03 06:56:00,
2013-05-03 03:01:00,54.7,12.0,29.94,SE,126,0.0,0.0,18,0.00,,FEW120,0.00,VWS V14.01,2013-05-03 07:01:00,
2013-05-03 03:06:00,54.5,11.9,29.94,NNW,327,0.0,4.0,18,0.00,,FEW120,0.00,VWS V14.01,2013-05-03 07:06:00,
2013-05-03 03:11:00,54.3,11.7,29.94,East,89,0.0,2.7,18,0.00,,FEW120,0.00,VWS V14.01,2013-05-03 07:11:00,
2013-05-03 03:16:00,54.1,11.6,29.94,North,0,0.0,0.0,18,0.00,,FEW120,0.00,VWS V14.01,2013-05-03 07:16:00,
2013-05-03 03:21:00,53.8,11.3,29.94,ESE,103,0.0,0.0,18,0.00,,FEW120,0.00,VWS V14.01,2013-05-03 07:21:00,
2013-05-03 03:26:00,53.8,11.3,29.94,SE,131,0.0,0.0,18,0.00,,FEW120,0.00,VWS V14.01,2013-05-03 07:26:00,
2013-05-03 03:31:00,53.8,11.3,29.94,East,83,0.0,2.2,18,0.00,,FEW120,0.00,VWS V14.01,2013-05-03 07:31:00,
2013-05-03 03:36:00,53.6,11.1,29.94,NNW,341,0.0,0.0,18,0.00,,FEW120,0.00,VWS V14.01,2013-05-03 07:36:00,
2013-05-03 03:41:00,53.6,11.1,29.94,ESE,117,0.0,0.0,18,0.00,,FEW120,0.00,VWS V14.01,2013-05-03 07:41:00,
2013-05-03 03:46:00,53.6,11.1,29.94,NW,323,0.0,0.0,18,0.00,,FEW120,0.00,VWS V14.01,2013-05-03 07:46:00,
2013-05-03 03:51:00,53.4,11.0,29.94,ESE,121,0.0,0.0,18,0.00,,FEW120,0.00,VWS V14.01,2013-05-03 07:51:00,
2013-05-03 03:56:00,53.2,10.9,29.97,SE,125,2.2,2.2,18,0.00,,FEW120,0.00,VWS V14.01,2013-05-03 07:56:00,
2013-05-03 04:01:00,53.1,10.7,29.97,WNW,301,0.0,0.0,18,0.00,,OVC110,0.00,VWS V14.01,2013-05-03 08:01:00,
2013-05-03 04:06:00,53.1,10.7,29.97,North,0,0.0,0.0,18,0.00,,OVC110,0.00,VWS V14.01,2013-05-03 08:06:00,
2013-05-03 04:11:00,53.1,10.7,29.97,ENE,74,0.0,0.0,18,0.00,,OVC110,0.00,VWS V14.01,2013-05-03 08:11:00,
2013-05-03 04:16:00,53.1,10.7,29.97,SE,124,0.0,0.0,18,0.00,,OVC110,0.00,VWS V14.01,2013-05-03 08:16:00,
2013-05-03 04:21:00,53.1,10.7,29.97,NW,319,0.0,0.0,18,0.00,,OVC110,0.00,VWS V14.01,2013-05-03 08:21:00,
2013-05-03 04:26:00,53.1,10.7,29.97,WNW,285,0.0,0.0,18,0.00,,OVC110,0.00,VWS V14.01,2013-05-03 08:26:00,
2013-05-03 04:31:00,52.9,10.6,29.97,WNW,300,0.0,0.0,18,0.00,,OVC110,0.00,VWS V14.01,2013-05-03 08:31:00,
2013-05-03 04:36:00,52.7,10.4,29.97,East,93,0.0,0.0,18,0.00,,OVC110,0.00,VWS V14.01,2013-05-03 08:36:00,
2013-05-03 04:41:00,52.7,10.4,29.97,SE,130,0.0,0.0,18,0.00,,OVC110,0.00,VWS V14.01,2013-05-03 08:41:00,
2013-05-03 04:46:00,52.5,10.2,29.97,ESE,106,0.0,0.0,18,0.00,,OVC110,0.00,VWS V14.01,2013-05-03 08:46:00,
2013-05-03 04:51:00,52.3,10.1,29.97,ENE,57,0.0,0.0,18,0.00,,OVC110,0.00,VWS V14.01,2013-05-03 08:51:00,
2013-05-03 06:22:00,50.2,9.5,29.97,NW,314,0.0,0.0,19,0.00,,OVC110,0.00,VWS V14.01,2013-05-03 10:22:00,
2013-05-03 06:27:00,50.2,9.5,29.97,NW,314,0.0,0.0,19,0.00,,OVC110,0.00,VWS V14.01,2013-05-03 10:27:00,
2013-05-03 06:32:00,50.2,9.5,29.97,NW,314,0.0,0.0,19,0.00,,OVC100,0.00,VWS V14.01,2013-05-03 10:32:00,
2013-05-03 06:37:00,50.4,9.7,29.97,NW,314,0.0,0.0,19,0.00,,OVC100,0.00,VWS V14.01,2013-05-03 10:37:00,
2013-05-03 06:42:00,50.5,9.8,29.97,NW,314,0.0,0.0,19,0.00,,OVC100,0.00,VWS V14.01,2013-05-03 10:42:00,
2013-05-03 06:47:00,50.7,10.0,29.97,NW,314,0.0,0.0,19,0.00,,OVC100,0.00,VWS V14.01,2013-05-03 10:47:00,
2013-05-03 06:52:00,50.9,10.1,29.97,NW,314,0.0,0.0,19,0.00,,OVC100,0.00,VWS V14.01,2013-05-03 10:52:00,
2013-05-03 06:57:00,51.1,10.3,29.97,NW,312,0.0,0.0,19,0.00,,OVC100,0.00,VWS V14.01,2013-05-03 10:57:00,
2013-05-03 07:02:00,51.1,10.3,29.97,NW,310,0.0,0.0,19,0.00,,BKN100,0.00,VWS V14.01,2013-05-03 11:02:00,
2013-05-03 07:07:00,51.3,10.4,29.97,WNW,302,0.0,0.0,19,0.00,,BKN100,0.00,VWS V14.01,2013-05-03 11:07:00,
2013-05-03 07:12:00,51.4,10.6,29.97,NNW,329,0.0,0.0,19,0.00,,BKN100,0.00,VWS V14.01,2013-05-03 11:12:00,
2013-05-03 07:17:00,51.6,10.7,29.97,NW,313,0.0,0.0,19,0.00,,BKN100,0.00,VWS V14.01,2013-05-03 11:17:00,
2013-05-03 07:22:00,51.8,9.7,29.97,SE,134,0.0,0.0,18,0.00,,BKN100,0.00,VWS V14.01,2013-05-03 11:22:00,
2013-05-03 07:27:00,52.2,10.0,29.97,NW,313,0.0,0.0,18,0.00,,BKN100,0.00,VWS V14.01,2013-05-03 11:27:00,
2013-05-03 07:32:00,52.5,10.2,29.97,NW,313,0.0,6.3,18,0.00,,BKN100,0.00,VWS V14.01,2013-05-03 11:32:00,
2013-05-03 07:37:00,52.9,10.6,29.97,NW,307,0.0,4.0,18,0.00,,BKN100,0.00,VWS V14.01,2013-05-03 11:37:00,
2013-05-03 07:42:00,52.9,10.6,29.97,East,84,0.0,0.0,18,0.00,,BKN100,0.00,VWS V14.01,2013-05-03 11:42:00,
2013-05-03 07:47:00,53.1,10.7,29.97,NW,324,4.0,7.6,18,0.00,,BKN100,0.00,VWS V14.01,2013-05-03 11:47:00,
2013-05-03 07:52:00,53.1,10.7,29.97,North,2,0.0,0.0,18,0.00,,BKN100,0.00,VWS V14.01,2013-05-03 11:52:00,
2013-05-03 07:57:00,53.2,10.9,29.97,SE,126,0.0,0.0,18,0.00,,BKN100,0.00,VWS V14.01,2013-05-03 11:57:00,
2013-05-03 08:02:00,53.4,11.0,29.97,WNW,284,0.0,4.0,18,0.00,,CLR,0.00,VWS V14.01,2013-05-03 12:02:00,
2013-05-03 08:07:00,53.6,11.1,29.97,SE,144,0.0,6.3,18,0.00,,CLR,0.00,VWS V14.01,2013-05-03 12:07:00,
2013-05-03 08:12:00,53.8,11.3,30.00,SSE,155,0.0,0.0,18,0.00,,CLR,0.00,VWS V14.01,2013-05-03 12:12:00,
2013-05-03 08:17:00,54.0,11.4,30.00,NNW,348,0.0,0.0,18,0.00,,CLR,0.00,VWS V14.01,2013-05-03 12:17:00,
2013-05-03 08:22:00,54.1,11.6,30.00,NW,316,0.0,2.2,18,0.00,,CLR,0.00,VWS V14.01,2013-05-03 12:22:00,
2013-05-03 08:27:00,54.5,11.9,30.00,NE,37,0.0,0.0,18,0.00,,CLR,0.00,VWS V14.01,2013-05-03 12:27:00,
2013-05-03 08:32:00,55.0,12.3,30.00,ESE,111,0.0,0.0,18,0.00,,CLR,0.00,VWS V14.01,2013-05-03 12:32:00,
2013-05-03 08:37:00,55.4,11.3,30.00,North,353,0.0,2.2,17,0.00,,CLR,0.00,VWS V14.01,2013-05-03 12:37:00,
2013-05-03 08:42:00,55.4,11.3,30.00,NW,320,2.2,3.6,17,0.00,,CLR,0.00,VWS V14.01,2013-05-03 12:42:00,
2013-05-03 08:47:00,55.6,11.5,30.00,East,84,0.0,2.2,17,0.00,,CLR,0.00,VWS V14.01,2013-05-03 12:47:00,
2013-05-03 08:52:00,55.8,11.6,30.00,SSE,168,0.0,0.0,17,0.00,,CLR,0.00,VWS V14.01,2013-05-03 12:52:00,
2013-05-03 08:57:00,55.9,11.8,29.97,East,101,0.0,0.0,17,0.00,,CLR,0.00,VWS V14.01,2013-05-03 12:57:00,
2013-05-03 09:02:00,56.3,12.1,29.97,West,271,4.0,6.3,17,0.00,,CLR,0.00,VWS V14.01,2013-05-03 13:02:00,
2013-05-03 09:07:00,56.8,12.5,29.97,NE,36,0.0,0.0,17,0.00,,CLR,0.00,VWS V14.01,2013-05-03 13:07:00,
2013-05-03 09:12:00,57.7,13.2,29.97,NNW,348,3.1,4.0,17,0.00,,CLR,0.00,VWS V14.01,2013-05-03 13:12:00,
2013-05-03 09:17:00,57.9,13.4,29.97,ESE,106,0.0,0.0,17,0.00,,CLR,0.00,VWS V14.01,2013-05-03 13:17:00,
2013-05-03 09:22:00,58.8,14.1,29.97,ESE,111,0.0,0.0,17,0.00,,CLR,0.00,VWS V14.01,2013-05-03 13:22:00,
2013-05-03 09:27:00,59.0,14.3,29.97,NW,311,0.0,4.0,17,0.00,,CLR,0.00,VWS V14.01,2013-05-03 13:27:00,
2013-05-03 09:32:00,58.8,14.1,29.97,ESE,104,0.0,0.0,17,0.00,,CLR,0.00,VWS V14.01,2013-05-03 13:32:00,
2013-05-03 09:37:00,59.5,14.7,29.97,ESE,123,0.0,0.0,17,0.00,,CLR,0.00,VWS V14.01,2013-05-03 13:37:00,
2013-05-03 09:42:00,59.9,15.0,29.97,NNW,331,0.0,0.0,17,0.00,,CLR,0.00,VWS V14.01,2013-05-03 13:42:00,
2013-05-03 09:47:00,59.7,14.9,29.97,WNW,300,0.0,4.0,17,0.00,,CLR,0.00,VWS V14.01,2013-05-03 13:47:00,
2013-05-03 09:52:00,60.3,15.3,29.97,East,95,0.0,0.0,17,0.00,,CLR,0.00,VWS V14.01,2013-05-03 13:52:00,
2013-05-03 09:57:00,60.6,15.6,29.97,East,81,2.2,3.1,17,0.00,,CLR,0.00,VWS V14.01,2013-05-03 13:57:00,
2013-05-03 10:02:00,60.6,15.6,29.97,West,270,0.0,4.9,17,0.00,,CLR,0.00,VWS V14.01,2013-05-03 14:02:00,
2013-05-03 10:07:00,60.3,15.3,29.97,East,94,0.0,5.4,17,0.00,,CLR,0.00,VWS V14.01,2013-05-03 14:07:00,
2013-05-03 10:12:00,60.1,15.1,29.97,NNW,327,6.3,6.3,17,0.00,,CLR,0.00,VWS V14.01,2013-05-03 14:12:00,
2013-05-03 10:17:00,59.7,14.9,29.97,NW,308,5.4,5.8,17,0.00,,CLR,0.00,VWS V14.01,2013-05-03 14:17:00,
2013-05-03 10:22:00,59.4,14.6,29.97,North,0,0.0,2.7,17,0.00,,CLR,0.00,VWS V14.01,2013-05-03 14:22:00,